Leadville, CO

1:56 AM MDT on June 25, 2017 (GMT -0600)
Lake County

Weather History for KLXV - September, 2013

Change the Weather History Date:

Sunday, September 15, 2013

  Actual Average Record
Temperature  
Mean Temperature 46 °F -  
Max Temperature 58 °F 61 °F 73 °F (1990)
Min Temperature 34 °F 31 °F 20 °F (1993)
Degree Days  
Heating Degree Days 19 19  
Month to date heating degree days 168 255  
Since 1 July heating degree days 770 977  
Cooling Degree Days 0 0  
Month to date cooling degree days 0 0  
Year to date cooling degree days 0 0  
Moisture  
Dew Point 40 °F    
Average Humidity 76    
Maximum Humidity 100    
Minimum Humidity 51    
Precipitation  
Precipitation 0.02 in 0.03 in 0.22 in (1976)
Month to date precipitation 2.62 0.61  
Year to date precipitation 14.26 9.56  
Sea Level Pressure  
Sea Level Pressure 30.15 in    
Wind  
Wind Speed 5 mph (South)    
Max Wind Speed 28 mph    
Max Gust Speed 32 mph    
Visibility 9 miles    
Events Fog , Rain , Thunderstorm    
T = Trace of Precipitation, MM = Missing Value Source: NWS Daily Summary

Daily Weather History Graph

Daily Weather History Graph

Search for Another Location

Airport or City:

Trip Planner

Search our weather history database for the weather conditions in past years. The results will help you decide how hot, cold, wet, or windy it might be!

Date:

Astronomy

Sep. 15, 2013 Rise Set
Actual Time 6:46 AM MDT 7:13 PM MDT
Civil Twilight 6:19 AM MDT 7:40 PM MDT
Nautical Twilight 5:48 AM MDT 8:11 PM MDT
Astronomical Twilight 5:15 AM MDT 8:43 PM MDT
Moon 4:41 PM MDT (9/15) 2:29 AM MDT (9/15)
Length of Visible Light 13h 20m
Length of Day
12h 26m
Waxing Gibbous, 82% of the Moon is Illuminated
Sep 15
Waxing Gibbous
Sep 19
Full
Sep 26
Last Quarter
Oct 4
New
Oct 11
First Quarter

Hourly Weather History & Observations

Time (MDT) Temp. Windchill Dew Point Humidity Pressure Visibility Wind Dir Wind Speed Gust Speed Precip Events Conditions
12:53 AM 41.0 °F - 39.9 °F 96% 29.89 in 10.0 mi Calm Calm - N/A   Partly Cloudy
1:53 AM 39.9 °F - 37.9 °F 93% 29.96 in 10.0 mi Calm Calm - N/A   Clear
2:53 AM 37.0 °F 32.4 °F 36.0 °F 96% 29.93 in 10.0 mi ENE 5.8 mph - N/A   Clear
3:53 AM 37.9 °F - 37.0 °F 97% 29.94 in 10.0 mi Calm Calm - N/A   Clear
4:53 AM 36.0 °F - 35.1 °F 97% 29.97 in 10.0 mi Calm Calm - N/A   Partly Cloudy
5:53 AM 36.0 °F - 34.0 °F 93% 29.95 in 10.0 mi Calm Calm - N/A   Clear
6:53 AM 37.0 °F - 35.1 °F 93% 29.99 in 10.0 mi Calm Calm - N/A   Partly Cloudy
7:53 AM 37.9 °F 35.5 °F 36.0 °F 93% 30.02 in 10.0 mi ENE 3.5 mph - N/A   Scattered Clouds
8:53 AM 43.0 °F - 39.9 °F 89% 29.99 in 10.0 mi Calm Calm - N/A   Overcast
9:53 AM 45.0 °F 41.8 °F 41.0 °F 86% 30.01 in 10.0 mi South 5.8 mph - N/A   Overcast
10:53 AM 46.9 °F - 41.0 °F 80% 30.03 in 10.0 mi SSW 4.6 mph - N/A   Overcast
11:53 AM 53.1 °F - 41.0 °F 64% 29.97 in 10.0 mi South 15.0 mph - N/A   Mostly Cloudy
12:53 PM 53.1 °F - 41.0 °F 64% 29.99 in 10.0 mi South 10.4 mph - N/A   Mostly Cloudy
1:53 PM 57.0 °F - 39.9 °F 53% 29.95 in 10.0 mi South 15.0 mph 21.9 mph N/A   Overcast
2:29 PM 50.0 °F - 39.2 °F 66% 30.37 in 10.0 mi South 18.4 mph 26.5 mph N/A Thunderstorm Thunderstorm
2:45 PM 48.2 °F - 39.2 °F 71% 30.38 in 10.0 mi SSE 13.8 mph - N/A   Scattered Clouds
2:53 PM 50.0 °F - 39.9 °F 68% 30.03 in 10.0 mi SSE 8.1 mph - N/A   Mostly Cloudy
3:53 PM 52.0 °F - 44.1 °F 74% 30.02 in 10.0 mi South 5.8 mph - 0.02 in   Overcast
4:53 PM 51.1 °F - 41.0 °F 68% 30.04 in 10.0 mi South 11.5 mph - N/A   Overcast
5:53 PM 51.1 °F - 37.9 °F 61% 30.06 in 10.0 mi SE 8.1 mph - N/A   Scattered Clouds
6:53 PM 48.0 °F - 39.0 °F 71% 30.08 in 10.0 mi SW 4.6 mph - N/A   Mostly Cloudy
7:53 PM 45.0 °F 41.8 °F 42.1 °F 90% 30.12 in 8.0 mi SSE 5.8 mph - 0.00 in Rain Light Rain
8:53 PM 44.1 °F 42.5 °F 41.0 °F 89% 30.11 in 10.0 mi SSW 3.5 mph - 0.00 in   Mostly Cloudy
9:28 PM 44.6 °F 39.7 °F 42.8 °F 93% 30.46 in 10.0 mi South 9.2 mph - N/A   Overcast
9:39 PM 44.6 °F 43.1 °F 42.8 °F 93% 30.46 in 10.0 mi South 3.5 mph - N/A   Overcast
9:53 PM 44.1 °F 41.5 °F 42.1 °F 93% 30.10 in 10.0 mi SW 4.6 mph - N/A   Overcast
10:12 PM 42.8 °F 38.6 °F 42.8 °F 100% 30.47 in 10.0 mi South 6.9 mph - N/A   Overcast
10:53 PM 43.0 °F 40.3 °F 42.1 °F 97% 30.11 in 10.0 mi South 4.6 mph - N/A   Overcast
11:00 PM 42.8 °F 40.1 °F 42.8 °F 100% 30.47 in 1.8 mi South 4.6 mph - N/A   Overcast
11:10 PM 42.8 °F 39.3 °F 42.8 °F 100% 30.47 in 0.5 mi SSW 5.8 mph - N/A Fog Fog
11:22 PM 42.8 °F 37.5 °F 42.8 °F 100% 30.47 in 2.0 mi South 9.2 mph - N/A   Overcast
11:30 PM 42.8 °F 38.0 °F 42.8 °F 100% 30.47 in 10.0 mi South 8.1 mph - N/A   Overcast
11:41 PM 42.8 °F 41.1 °F 42.8 °F 100% 30.47 in 10.0 mi SSE 3.5 mph - N/A   Overcast
11:49 PM 42.8 °F 40.1 °F 42.8 °F 100% 30.46 in 10.0 mi SSW 4.6 mph - N/A   Overcast
11:53 PM 42.1 °F 38.4 °F 41.0 °F 96% 30.06 in 10.0 mi SSW 5.8 mph - N/A   Overcast